When you browse on this site, cookies collect data to enhance your experience and personalize the content and advertising you see.
Visit our Privacy Policy to learn more. By continuing to use the site, you agree to this use of cookies and data.
  • en Suisse
  • Liste des pays
  • À 7 jours
  • Température de l'eau
  • Carte météo
  • Widgets météo
  • user-avatar
    Se connecter

    Météo par heure à Erevan

    Ce jour, 31 Mai, Dimanche

    Heure Température Précipitation Vent Pression Humidité
    00:00 +20°C° 0 mm 2 m/s 689 mmHg 35%
    01:00 +19°C° 0 mm 2 m/s 689 mmHg 36%
    02:00 +18°C° 0 mm 2 m/s 689 mmHg 36%
    03:00 +18°C° 0 mm 2 m/s 689 mmHg 38%
    04:00 +18°C° 0 mm 2 m/s 690 mmHg 39%
    05:00 +19°C° 0 mm 2 m/s 690 mmHg 40%
    06:00 +19°C° 0 mm 3 m/s 690 mmHg 40%
    07:00 +21°C° 0 mm 3 m/s 691 mmHg 36%
    08:00 +24°C° 0 mm 3 m/s 691 mmHg 32%
    09:00 +26°C° 0 mm 3 m/s 691 mmHg 27%
    10:00 +27°C° 0 mm 3 m/s 691 mmHg 25%
    11:00 +28°C° 0 mm 3 m/s 691 mmHg 22%
    12:00 +29°C° 0 mm 3 m/s 691 mmHg 19%
    13:00 +29°C° 0 mm 2 m/s 690 mmHg 18%
    14:00 +30°C° 0 mm 2 m/s 690 mmHg 18%
    15:00 +30°C° 0 mm 2 m/s 690 mmHg 17%
    16:00 +30°C° 0 mm 1 m/s 689 mmHg 20%
    17:00 +30°C° 0 mm 1 m/s 689 mmHg 23%
    18:00 +30°C° 0 mm 1 m/s 689 mmHg 26%
    19:00 +27°C° 0 mm 1 m/s 689 mmHg 27%
    20:00 +25°C° 0 mm 1 m/s 689 mmHg 27%
    21:00 +23°C° 0 mm 2 m/s 689 mmHg 28%
    22:00 +21°C° 0 mm 2 m/s 689 mmHg 32%
    23:00 +20°C° 0 mm 2 m/s 689 mmHg 36%

    Demain, 1 Juin, Lundi

    Heure Température Précipitation Vent Pression Humidité
    00:00 +20°C° 0 mm 1 m/s 688 mmHg 40%
    01:00 +19°C° 0 mm 1 m/s 688 mmHg 41%
    02:00 +19°C° 0 mm 1 m/s 688 mmHg 43%
    03:00 +18°C° 0 mm 1 m/s 688 mmHg 44%
    04:00 +19°C° 0 mm 1 m/s 688 mmHg 45%
    05:00 +20°C° 0 mm 1 m/s 688 mmHg 47%
    06:00 +20°C° 0 mm 1 m/s 689 mmHg 48%
    07:00 +22°C° 0 mm 1 m/s 689 mmHg 43%
    08:00 +24°C° 0 mm 1 m/s 689 mmHg 37%
    09:00 +26°C° 0 mm 1 m/s 689 mmHg 31%
    10:00 +27°C° 0 mm 1 m/s 689 mmHg 28%
    11:00 +29°C° 0 mm 1 m/s 689 mmHg 26%
    12:00 +30°C° 0 mm 1 m/s 689 mmHg 23%
    13:00 +31°C° 0 mm 1 m/s 689 mmHg 21%
    14:00 +31°C° 0 mm 2 m/s 689 mmHg 20%
    15:00 +32°C° 0 mm 2 m/s 688 mmHg 19%
    16:00 +31°C° 0 mm 3 m/s 688 mmHg 22%
    17:00 +30°C° 0 mm 4 m/s 688 mmHg 25%
    18:00 +29°C° 0 mm 5 m/s 688 mmHg 27%
    19:00 +28°C° 0 mm 4 m/s 688 mmHg 28%
    20:00 +27°C° 0 mm 3 m/s 688 mmHg 28%
    21:00 +25°C° 0 mm 3 m/s 688 mmHg 28%
    22:00 +24°C° 0 mm 2 m/s 688 mmHg 31%
    23:00 +23°C° 0 mm 1 m/s 687 mmHg 33%

    Après-demain, 2 Juin, Mardi

    Heure Température Précipitation Vent Pression Humidité
    00:00 +21°C° 0 mm 1 m/s 687 mmHg 36%
    01:00 +21°C° 0 mm 1 m/s 687 mmHg 37%
    02:00 +20°C° 0 mm 1 m/s 687 mmHg 39%
    03:00 +19°C° 0 mm 1 m/s 686 mmHg 40%
    04:00 +20°C° 0 mm 1 m/s 686 mmHg 42%
    05:00 +21°C° 0 mm 1 m/s 686 mmHg 43%
    06:00 +22°C° 0 mm 1 m/s 687 mmHg 44%
    07:00 +24°C° 0 mm 1 m/s 686 mmHg 39%
    08:00 +26°C° 0 mm 1 m/s 686 mmHg 33%
    09:00 +27°C° 0 mm 1 m/s 686 mmHg 27%
    10:00 +28°C° 0 mm 2 m/s 686 mmHg 26%
    11:00 +29°C° 0 mm 2 m/s 686 mmHg 25%
    12:00 +30°C° 0 mm 3 m/s 686 mmHg 24%
    13:00 +31°C° 0 mm 3 m/s 686 mmHg 24%
    14:00 +31°C° 0 mm 3 m/s 686 mmHg 24%
    15:00 +33°C° 0 mm 3 m/s 685 mmHg 24%
    16:00 +31°C° 0 mm 3 m/s 685 mmHg 28%
    17:00 +30°C° 0 mm 3 m/s 685 mmHg 32%
    18:00 +29°C° 0 mm 3 m/s 685 mmHg 35%
    19:00 +27°C° 0 mm 3 m/s 685 mmHg 38%
    20:00 +25°C° 0 mm 2 m/s 685 mmHg 40%
    21:00 +23°C° 0 mm 2 m/s 685 mmHg 43%
    22:00 +21°C° 0 mm 2 m/s 685 mmHg 44%
    23:00 +21°C° 0 mm 2 m/s 685 mmHg 45%

    3 Juin, Mercredi

    Heure Température Précipitation Vent Pression Humidité
    00:00 +20°C° 0 mm 2 m/s 685 mmHg 46%
    01:00 +19°C° 0 mm 2 m/s 685 mmHg 45%
    02:00 +19°C° 0 mm 2 m/s 685 mmHg 43%
    03:00 +18°C° 0 mm 2 m/s 686 mmHg 42%
    04:00 +19°C° 0 mm 2 m/s 686 mmHg 42%
    05:00 +20°C° 0 mm 1 m/s 686 mmHg 43%
    06:00 +21°C° 0 mm 1 m/s 687 mmHg 43%
    07:00 +23°C° 0 mm 1 m/s 687 mmHg 38%
    08:00 +24°C° 0 mm 1 m/s 687 mmHg 32%
    09:00 +26°C° 0 mm 1 m/s 687 mmHg 27%
    10:00 +28°C° 0 mm 1 m/s 687 mmHg 25%
    11:00 +29°C° 0 mm 2 m/s 687 mmHg 23%
    12:00 +30°C° 0 mm 3 m/s 688 mmHg 21%
    13:00 +30°C° 0.1 mm 3 m/s 687 mmHg 25%
    14:00 +29°C° 0.1 mm 3 m/s 687 mmHg 28%
    15:00 +29°C° 0.1 mm 3 m/s 687 mmHg 32%
    16:00 +28°C° 0.3 mm 3 m/s 687 mmHg 36%
    17:00 +27°C° 0.3 mm 3 m/s 686 mmHg 41%
    18:00 +26°C° 0.3 mm 2 m/s 686 mmHg 46%
    19:00 +24°C° 0 mm 2 m/s 687 mmHg 48%
    20:00 +23°C° 0 mm 2 m/s 687 mmHg 50%
    21:00 +20°C° 0 mm 2 m/s 687 mmHg 52%
    22:00 +20°C° 0 mm 2 m/s 687 mmHg 53%
    23:00 +19°C° 0 mm 2 m/s 687 mmHg 54%

    4 Juin, Jeudi

    Heure Température Précipitation Vent Pression Humidité
    00:00 +18°C° 0 mm 2 m/s 687 mmHg 56%
    01:00 +18°C° 0 mm 2 m/s 687 mmHg 57%
    02:00 +17°C° 0 mm 2 m/s 687 mmHg 58%
    03:00 +16°C° 0 mm 1 m/s 687 mmHg 60%
    04:00 +18°C° 0 mm 1 m/s 688 mmHg 57%
    05:00 +19°C° 0 mm 1 m/s 688 mmHg 54%
    06:00 +20°C° 0 mm 1 m/s 688 mmHg 52%
    07:00 +22°C° 0 mm 1 m/s 689 mmHg 45%
    08:00 +24°C° 0 mm 1 m/s 689 mmHg 39%
    09:00 +26°C° 0 mm 1 m/s 689 mmHg 32%
    10:00 +27°C° 0 mm 1 m/s 689 mmHg 28%
    11:00 +29°C° 0 mm 1 m/s 689 mmHg 24%
    12:00 +30°C° 0 mm 1 m/s 689 mmHg 20%
    13:00 +31°C° 0 mm 1 m/s 689 mmHg 19%
    14:00 +31°C° 0 mm 1 m/s 689 mmHg 19%
    15:00 +32°C° 0 mm 2 m/s 688 mmHg 18%
    16:00 +32°C° 0 mm 2 m/s 688 mmHg 20%
    17:00 +31°C° 0 mm 2 m/s 688 mmHg 23%
    18:00 +31°C° 0 mm 1 m/s 689 mmHg 25%
    19:00 +29°C° 0 mm 2 m/s 689 mmHg 26%
    20:00 +26°C° 0 mm 3 m/s 689 mmHg 27%
    21:00 +24°C° 0 mm 3 m/s 689 mmHg 28%
    22:00 +22°C° 0 mm 3 m/s 689 mmHg 29%
    23:00 +21°C° 0 mm 2 m/s 689 mmHg 30%

    5 Juin, Vendredi

    Heure Température Précipitation Vent Pression Humidité
    00:00 +20°C° 0 mm 2 m/s 689 mmHg 30%
    01:00 +20°C° 0 mm 1 m/s 689 mmHg 32%
    02:00 +19°C° 0 mm 1 m/s 689 mmHg 33%
    03:00 +18°C° 0 mm 1 m/s 689 mmHg 34%
    04:00 +19°C° 0 mm 1 m/s 690 mmHg 36%
    05:00 +20°C° 0 mm 1 m/s 690 mmHg 38%
    06:00 +20°C° 0 mm 2 m/s 691 mmHg 41%
    07:00 +23°C° 0 mm 2 m/s 691 mmHg 35%
    08:00 +25°C° 0 mm 2 m/s 691 mmHg 30%
    09:00 +27°C° 0 mm 2 m/s 691 mmHg 25%
    10:00 +28°C° 0 mm 2 m/s 691 mmHg 23%
    11:00 +30°C° 0 mm 1 m/s 691 mmHg 21%
    12:00 +31°C° 0 mm 1 m/s 692 mmHg 18%
    13:00 +31°C° 0 mm 1 m/s 691 mmHg 18%
    14:00 +32°C° 0 mm 1 m/s 691 mmHg 17%
    15:00 +32°C° 0 mm 1 m/s 691 mmHg 17%
    16:00 +32°C° 0 mm 1 m/s 691 mmHg 19%
    17:00 +32°C° 0 mm 1 m/s 691 mmHg 22%
    18:00 +31°C° 0 mm 1 m/s 691 mmHg 24%
    19:00 +29°C° 0 mm 1 m/s 691 mmHg 26%
    20:00 +26°C° 0 mm 2 m/s 691 mmHg 28%
    21:00 +24°C° 0 mm 2 m/s 691 mmHg 30%
    22:00 +22°C° 0 mm 3 m/s 691 mmHg 35%
    23:00 +21°C° 0 mm 3 m/s 691 mmHg 40%
    Voir plus